Notices

What's New in latest Release from April 7th, 2021:

- Updated Glossary, including Speed of Maximum Gust, and Total Hourly Precipitation

- Updated national and regional climate services offices contacts and prices information

- Addition of station inventory lists for 1981-2010, 1971-2000, and 1961-1990 Normals.

If you haven't already, please take our survey and provide feedback about our website: https://eccc.sondage-survey.ca/f/LanguageSelection.aspx?s=442ca660-fcf1-47c0-95a9-59707d6fd709

Hourly Data Report for July 22, 2018

TORONTO CITY
ONTARIO
Current Station Operator: ECCC - MSC

43°40'00.000" N
79°24'00.000" W
112.50 m
6158355
71508
XTO

Download Data

Hourly Data (July 2018)
Hourly Data Report for July 22, 2018
TIME
LST
Temp Definition
°C
Dew Point Definition
°C
Rel Hum Definition
%
Precip. Amount Definition
mm

Wind Dir Definition
10's deg

Wind Spd Definition
km/h
Visibility Definition
km
Stn Press Definition
kPa
Hmdx Definition


Wind Chill Definition


Weather Definition


00:00 19.5 13.2 67 0.0 LegendMM LegendMM   100.00     LegendNANA
01:00 18.9 13.6 71 0.0 LegendMM LegendMM   99.94     LegendNANA
02:00 19.1 14.3 74 0.0 LegendMM LegendMM   99.81     LegendNANA
03:00 18.6 14.8 79 0.0 LegendMM LegendMM   99.83     LegendNANA
04:00 17.9 14.7 82 0.5 LegendMM LegendMM   99.72     LegendNANA
05:00 17.7 15.0 84 0.5 LegendMM LegendMM   99.62     LegendNANA
06:00 18.2 15.4 84 0.7 LegendMM LegendMM   99.57     LegendNANA
07:00 18.1 15.3 84 2.9 LegendMM LegendMM   99.52     LegendNANA
08:00 17.5 15.4 87 8.2 LegendMM LegendMM   99.42     LegendNANA
09:00 17.8 15.7 88 4.4 LegendMM LegendMM   99.36     LegendNANA
10:00 18.5 16.6 89 0.0 LegendMM LegendMM   99.32     LegendNANA
11:00 19.1 17.3 89 0.9 LegendMM LegendMM   99.31     LegendNANA
12:00 19.9 18.1 90 3.2 LegendMM LegendMM   99.32     LegendNANA
13:00 20.8 17.3 80 0.0 LegendMM LegendMM   99.39 26   LegendNANA
14:00 22.5 16.4 68 0.0 LegendMM LegendMM   99.45 27   LegendNANA
15:00 21.9 16.3 71 0.0 LegendMM LegendMM   99.55 27   LegendNANA
16:00 22.3 16.4 69 0.0 LegendMM LegendMM   99.59 27   LegendNANA
17:00 22.5 16.4 69 0.0 LegendMM LegendMM   99.65 27   LegendNANA
18:00 22.6 16.6 69 0.0 LegendMM LegendMM   99.74 28   LegendNANA
19:00 22.4 16.7 70 0.0 LegendMM LegendMM   99.81 27   LegendNANA
20:00 22.0 17.0 74 0.0 LegendMM LegendMM   99.83 27   LegendNANA
21:00 21.5 16.7 74 0.0 LegendMM LegendMM   99.87 27   LegendNANA
22:00 21.6 16.4 72 0.0 LegendMM LegendMM   99.86 26   LegendNANA
23:00 21.8 16.7 73 0.0 LegendMM LegendMM   99.88 27   LegendNANA

Notes on Data Quality.

Legend

  • E = Estimated
  • M = Missing
  • NA = Not Available*
  • [empty] = Indicates an unobserved value
Date modified: